Location: Unspecified
(0.0000°N, 0.0000°E)
Time: 01:24:05
(UTC+00:00)

ISS - Pass Details

Date: 22 October 2017
Orbit: 401 x 408 km, 51.6° (Epoch: 21 October)

Event Time Altitude Azimuth Distance (km) Brightness Sun altitude
Rises 18:24:47 0° 310° (NW) 2,309 0.6 -9.9°
Reaches altitude 10° 18:26:58 10° 300° (WNW) 1,454 -0.3 -10.4°
Maximum altitude 18:29:56 32° 235° (SW) 718 -1.9 -11.2°
Drops below altitude 10° 18:32:55 10° 169° (S) 1,462 -1.0 -11.9°
Sets 18:35:08 0° 159° (SSE) 2,325 -0.1 -12.4°
